Location: Little Arabia
(41.4620°N, 81.7687°W)
Time: 20:03:58
(UTC+00:00)

Cosmos 1076 Rocket - Pass Details

Date: 29 October 2020
Orbit: 589 x 612 km, 82.5° (Epoch: 02 December)

Event Time Altitude Azimuth Distance (km) Brightness Sun altitude
Rises 23:18:34 0° 4° (N) 2,832 6.8 -10.6°
Reaches altitude 10° 23:21:06 10° 18° (NNE) 1,928 5.8 -11.0°
Maximum altitude 23:24:37 25° 74° (ENE) 1,223 4.5 -11.7°
Drops below altitude 10° 23:28:07 10° 130° (SE) 1,922 5.7 -12.3°
Sets 23:30:38 0° 144° (SE) 2,822 6.7 -12.8°
